Paso Robles, CA

10:09 PM PST on December 10, 2019 (GMT -0800)
Paso Robles Municipal

Weather History for KPRB - October, 2019

Change the Weather History Date:

Friday, October 4, 2019

  Actual Average Record
Temperature  
Mean Temperature 60 °F 65 °F  
Max Temperature 81 °F 83 °F 105 °F (1987)
Min Temperature 38 °F 47 °F 34 °F (2009)
Degree Days  
Heating Degree Days 6 2  
Month to date heating degree days 27 8  
Since 1 July heating degree days 53 40  
Cooling Degree Days 0 3  
Month to date cooling degree days 0 12  
Year to date cooling degree days 1035 903  
Growing Degree Days 10 (Base 50)    
Moisture  
Dew Point 38 °F    
Average Humidity 52    
Maximum Humidity 93    
Minimum Humidity 15    
Precipitation  
Precipitation 0.00 in 0.02 in 0.54 in (1956)
Month to date precipitation 0.00 0.05  
Year to date precipitation 11.28 9.17  
Sea Level Pressure  
Sea Level Pressure 30.07 in    
Wind  
Wind Speed 7 mph ()    
Max Wind Speed 18 mph    
Max Gust Speed 23 mph    
Visibility 10.0 miles    
Events      
T = Trace of Precipitation, MM = Missing Value Source: Averaged Metar Reports

Daily Weather History Graph

Daily Weather History Graph

Search for Another Location

Airport or City:

Astronomy

Oct. 04, 2019 Rise Set
Actual Time 6:59 AM PDT 6:42 PM PDT
Civil Twilight 6:34 AM PDT 7:07 PM PDT
Nautical Twilight 6:04 AM PDT 7:37 PM PDT
Astronomical Twilight 5:35 AM PDT 8:06 PM PDT
Moon 1:25 PM PDT (10/4) 11:26 PM PDT (10/4)
Length of Visible Light 12h 33m
Length of Day
11h 42m
Waxing Crescent, 41% of the Moon is Illuminated
Oct 4
Waxing Crescent
Oct 5
First Quarter
Oct 13
Full
Oct 21
Last Quarter
Oct 27
New

Hourly Weather History & Observations

Time (PDT) Temp. Windchill Dew Point Humidity Pressure Visibility Wind Dir Wind Speed Gust Speed Precip Events Conditions
12:53 AM 55.0 °F - 44.1 °F 67% 30.03 in 10.0 mi NW 18.4 mph - N/A   Clear
1:53 AM 53.1 °F - 43.0 °F 69% 30.03 in 10.0 mi NW 16.1 mph - N/A   Clear
2:53 AM 52.0 °F - 43.0 °F 71% 30.04 in 10.0 mi NW 11.5 mph - N/A   Clear
3:53 AM 50.0 °F - 43.0 °F 77% 30.05 in 10.0 mi NW 6.9 mph - N/A   Clear
4:53 AM 46.9 °F - 42.1 °F 83% 30.06 in 10.0 mi North 5.8 mph - N/A   Clear
5:53 AM 39.9 °F 37.8 °F 36.0 °F 86% 30.08 in 10.0 mi ESE 3.5 mph - N/A   Clear
6:53 AM 39.0 °F 36.8 °F 37.0 °F 93% 30.09 in 10.0 mi NE 3.5 mph - N/A   Clear
7:53 AM 42.1 °F 39.2 °F 37.9 °F 85% 30.10 in 10.0 mi East 4.6 mph - N/A   Clear
8:53 AM 50.0 °F - 42.1 °F 74% 30.12 in 10.0 mi East 4.6 mph - N/A   Clear
9:53 AM 55.9 °F - 43.0 °F 62% 30.12 in 10.0 mi Calm Calm - N/A   Clear
10:53 AM 60.1 °F - 42.1 °F 51% 30.12 in 10.0 mi WNW 6.9 mph - N/A   Clear
11:53 AM 66.0 °F - 39.9 °F 38% 30.09 in 10.0 mi Variable 5.8 mph - N/A   Clear
12:53 PM 71.1 °F - 41.0 °F 34% 30.07 in 10.0 mi Variable 4.6 mph - N/A   Clear
1:53 PM 73.9 °F - 39.9 °F 29% 30.04 in 10.0 mi Variable 4.6 mph - N/A   Clear
2:53 PM 77.0 °F - 37.9 °F 24% 30.03 in 10.0 mi Variable 4.6 mph - N/A   Clear
3:53 PM 81.0 °F - 34.0 °F 18% 30.01 in 10.0 mi NNE 6.9 mph - N/A   Clear
4:53 PM 79.0 °F - 27.0 °F 15% 30.02 in 10.0 mi SSE 6.9 mph - N/A   Clear
5:53 PM 77.0 °F - 28.9 °F 17% 30.02 in 10.0 mi ESE 10.4 mph - N/A   Clear
6:53 PM 71.1 °F - 30.0 °F 22% 30.04 in 10.0 mi East 6.9 mph - N/A   Clear
7:53 PM 68.0 °F - 30.0 °F 24% 30.06 in 10.0 mi Variable 3.5 mph - N/A   Clear
8:53 PM 61.0 °F - 39.0 °F 44% 30.08 in 10.0 mi West 6.9 mph - N/A   Clear
9:53 PM 59.0 °F - 39.9 °F 49% 30.09 in 10.0 mi West 5.8 mph - N/A   Clear
10:53 PM 55.9 °F - 39.9 °F 55% 30.10 in 10.0 mi Calm Calm - N/A   Clear
11:53 PM 53.1 °F - 39.9 °F 61% 30.11 in 10.0 mi Calm Calm - N/A   Clear